Augusta Bush, GA

1:12 PM EDT on August 21, 2017 (GMT -0400)
Augusta Regional At Bush

Weather History for KAGS - March, 2014

Change the Weather History Date:

Sunday, March 2, 2014

  Actual Average Record
Temperature  
Mean Temperature 55 °F 53 °F  
Max Temperature 75 °F 66 °F 86 °F (1951)
Min Temperature 34 °F 39 °F 20 °F (1980)
Degree Days  
Heating Degree Days 10 13  
Month to date heating degree days 25 26  
Since 1 July heating degree days 2187 2058  
Cooling Degree Days 0 0  
Month to date cooling degree days 0 0  
Year to date cooling degree days 2 3  
Growing Degree Days 5 (Base 50)    
Moisture  
Dew Point 40 °F    
Average Humidity 62    
Maximum Humidity 92    
Minimum Humidity 31    
Precipitation  
Precipitation 0.00 in 0.15 in 2.20 in (1971)
Month to date precipitation 0.00 0.29  
Year to date precipitation 6.21 8.12  
Sea Level Pressure  
Sea Level Pressure 30.15 in    
Wind  
Wind Speed 5 mph (SSW)    
Max Wind Speed 16 mph    
Max Gust Speed 20 mph    
Visibility 8 miles    
Events      
T = Trace of Precipitation, MM = Missing Value Source: NWS Daily Summary

Daily Weather History Graph

Daily Weather History Graph

Search for Another Location

Airport or City:

Trip Planner

Search our weather history database for the weather conditions in past years. The results will help you decide how hot, cold, wet, or windy it might be!

Date:

Astronomy

Mar. 02, 2014 Rise Set
Actual Time 6:54 AM EST 6:25 PM EST
Civil Twilight 6:29 AM EST 6:50 PM EST
Nautical Twilight 6:01 AM EST 7:19 PM EST
Astronomical Twilight 5:32 AM EST 7:47 PM EST
Moon 7:31 AM EST (3/2) 8:12 PM EST (3/2)
Length of Visible Light 12h 20m
Length of Day
11h 30m
Waxing Crescent, 3% of the Moon is Illuminated
Mar 2
Waxing Crescent
Mar 8
First Quarter
Mar 16
Full
Mar 23
Last Quarter
Mar 30
New

Hourly Weather History & Observations

Time (EST) Temp. Dew Point Humidity Pressure Visibility Wind Dir Wind Speed Gust Speed Precip Events Conditions
12:53 AM 44.1 °F 37.9 °F 79% 30.25 in 10.0 mi Calm Calm - N/A   Overcast
1:53 AM 42.1 °F 37.0 °F 82% 30.23 in 8.0 mi Calm Calm - N/A   Mostly Cloudy
2:53 AM 42.1 °F 37.9 °F 85% 30.20 in 8.0 mi Calm Calm - N/A   Clear
3:08 AM 37.0 °F 35.1 °F 93% 30.20 in 1.8 mi Calm Calm - N/A   Clear
3:18 AM 39.0 °F 36.0 °F 89% 30.20 in 3.0 mi Calm Calm - N/A   Clear
3:53 AM 37.0 °F 35.1 °F 93% 30.20 in 5.0 mi Calm Calm - N/A   Clear
4:53 AM 36.0 °F 34.0 °F 93% 30.22 in 3.0 mi Calm Calm - N/A   Clear
5:05 AM 37.0 °F 35.1 °F 93% 30.21 in 1.8 mi Calm Calm - N/A   Clear
5:25 AM 37.0 °F 35.1 °F 93% 30.21 in 3.0 mi Calm Calm - N/A   Clear
5:53 AM 37.0 °F 35.1 °F 93% 30.22 in 6.0 mi Calm Calm - N/A   Clear
6:53 AM 35.1 °F 33.1 °F 92% 30.22 in 5.0 mi Calm Calm - N/A   Clear
7:53 AM 41.0 °F 37.9 °F 89% 30.24 in 5.0 mi Calm Calm - N/A   Clear
8:53 AM 48.0 °F 43.0 °F 83% 30.24 in 5.0 mi Calm Calm - N/A   Haze
9:53 AM 57.9 °F 45.0 °F 62% 30.23 in 10.0 mi Variable 4.6 mph - N/A   Clear
10:53 AM 64.9 °F 42.1 °F 43% 30.21 in 10.0 mi South 8.1 mph - N/A   Clear
11:53 AM 70.0 °F 41.0 °F 35% 30.19 in 10.0 mi SSW 11.5 mph - N/A   Clear
12:53 PM 72.0 °F 42.1 °F 34% 30.15 in 10.0 mi South 8.1 mph - N/A   Clear
1:53 PM 73.0 °F 42.1 °F 33% 30.11 in 10.0 mi SW 10.4 mph - N/A   Clear
2:53 PM 75.0 °F 43.0 °F 32% 30.09 in 10.0 mi SSW 10.4 mph 19.6 mph N/A   Clear
3:53 PM 73.9 °F 44.1 °F 34% 30.06 in 10.0 mi SSW 10.4 mph - N/A   Clear
4:53 PM 73.0 °F 44.1 °F 35% 30.04 in 10.0 mi South 12.7 mph - N/A   Clear
5:53 PM 70.0 °F 44.1 °F 39% 30.04 in 10.0 mi SSW 10.4 mph - N/A   Clear
6:53 PM 64.9 °F 44.1 °F 47% 30.04 in 10.0 mi South 5.8 mph - N/A   Clear
7:53 PM 59.0 °F 44.1 °F 58% 30.03 in 10.0 mi SSW 4.6 mph - N/A   Clear
8:53 PM 57.9 °F 44.1 °F 60% 30.02 in 10.0 mi South 8.1 mph - N/A   Clear
9:53 PM 57.9 °F 45.0 °F 62% 30.01 in 10.0 mi SSW 6.9 mph - N/A   Clear
10:53 PM 57.0 °F 44.1 °F 62% 30.01 in 10.0 mi SSW 8.1 mph - N/A   Clear
11:53 PM 57.0 °F 44.1 °F 62% 29.99 in 10.0 mi SSW 8.1 mph - N/A   Clear